Time,TemperatureF,DewpointF,PressureIn,WindDirection,WindDirectionDegrees,WindSpeedMPH,WindSpeedGustMPH,Humidity,HourlyPrecipIn,Conditions,Clouds,dailyrainin,SoftwareType,DateUTC
2013-03-16 00:23:00,37.0,-99.9,29.82,ESE,113,-999.0,3.0,-999,-99.99,,,-99.99,,2013-03-16 04:23:00,
2013-03-16 00:33:00,37.0,-99.9,29.82,ESE,113,-999.0,3.0,-999,-99.99,,,-99.99,,2013-03-16 04:33:00,
2013-03-16 00:43:00,37.0,-99.9,29.82,ESE,113,-999.0,3.0,-999,-99.99,,,-99.99,,2013-03-16 04:43:00,
2013-03-16 00:52:00,33.0,-99.9,29.81,SE,137,-999.0,4.0,-999,-99.99,,,-99.99,,2013-03-16 04:52:00,
2013-03-16 01:22:00,33.0,-99.9,29.81,SE,137,-999.0,4.0,-999,-99.99,,,-99.99,,2013-03-16 05:22:00,
2013-03-16 01:32:00,33.0,-99.9,29.81,SE,137,-999.0,4.0,-999,-99.99,,,-99.99,,2013-03-16 05:32:00,
2013-03-16 01:42:00,33.0,-99.9,29.81,SE,137,-999.0,4.0,-999,-99.99,,,-99.99,,2013-03-16 05:42:00,
2013-03-16 02:32:00,32.0,-99.9,29.82,SE,137,-999.0,-999.0,-999,-99.99,,,-99.99,,2013-03-16 06:32:00,
2013-03-16 02:42:00,32.0,-99.9,29.82,SE,137,-999.0,-999.0,-999,-99.99,,,-99.99,,2013-03-16 06:42:00,
2013-03-16 02:52:00,32.0,-99.9,29.82,SE,137,-999.0,-999.0,-999,-99.99,,,-99.99,,2013-03-16 06:52:00,
2013-03-16 03:22:00,30.0,-99.9,29.83,South,172,-999.0,-999.0,-999,-99.99,,,-99.99,,2013-03-16 07:22:00,
2013-03-16 03:32:00,30.0,-99.9,29.83,South,172,-999.0,-999.0,-999,-99.99,,,-99.99,,2013-03-16 07:32:00,
2013-03-16 03:42:00,30.0,-99.9,29.83,South,172,-999.0,-999.0,-999,-99.99,,,-99.99,,2013-03-16 07:42:00,
2013-03-16 03:52:00,29.0,-99.9,29.84,South,172,-999.0,-999.0,-999,-99.99,,,-99.99,,2013-03-16 07:52:00,
2013-03-16 04:23:00,29.0,-99.9,29.84,South,172,-999.0,-999.0,-999,-99.99,,,-99.99,,2013-03-16 08:23:00,
2013-03-16 04:33:00,29.0,-99.9,29.84,South,172,-999.0,-999.0,-999,-99.99,,,-99.99,,2013-03-16 08:33:00,
2013-03-16 04:43:00,29.0,-99.9,29.84,South,172,-999.0,-999.0,-999,-99.99,,,-99.99,,2013-03-16 08:43:00,
2013-03-16 04:52:00,29.0,-99.9,29.84,South,172,-999.0,-999.0,-999,-99.99,,,-99.99,,2013-03-16 08:52:00,
2013-03-16 05:22:00,29.0,-99.9,29.84,South,172,-999.0,-999.0,-999,-99.99,,,-99.99,,2013-03-16 09:22:00,
2013-03-16 05:33:00,29.0,-99.9,29.84,South,172,-999.0,-999.0,-999,-99.99,,,-99.99,,2013-03-16 09:33:00,
2013-03-16 05:43:00,29.0,-99.9,29.84,South,172,-999.0,-999.0,-999,-99.99,,,-99.99,,2013-03-16 09:43:00,
2013-03-16 05:52:00,28.0,-99.9,29.85,South,172,-999.0,-999.0,-999,-99.99,,,-99.99,,2013-03-16 09:52:00,
2013-03-16 06:23:00,28.0,-99.9,29.85,South,172,-999.0,-999.0,-999,-99.99,,,-99.99,,2013-03-16 10:23:00,
2013-03-16 06:33:00,28.0,-99.9,29.85,South,172,-999.0,-999.0,-999,-99.99,,,-99.99,,2013-03-16 10:33:00,
2013-03-16 06:42:00,28.0,-99.9,29.85,South,172,-999.0,-999.0,-999,-99.99,,,-99.99,,2013-03-16 10:42:00,
2013-03-16 06:52:00,27.0,-99.9,29.86,South,172,-999.0,-999.0,-999,-99.99,,,-99.99,,2013-03-16 10:52:00,
2013-03-16 07:22:00,27.0,-99.9,29.86,South,172,-999.0,-999.0,-999,-99.99,,,-99.99,,2013-03-16 11:22:00,
2013-03-16 07:33:00,27.0,-99.9,29.86,South,172,-999.0,-999.0,-999,-99.99,,,-99.99,,2013-03-16 11:33:00,
2013-03-16 07:43:00,27.0,-99.9,29.86,South,172,-999.0,-999.0,-999,-99.99,,,-99.99,,2013-03-16 11:43:00,
2013-03-16 07:52:00,28.0,-99.9,29.88,South,172,-999.0,-999.0,-999,-99.99,,,-99.99,,2013-03-16 11:52:00,
2013-03-16 08:32:00,28.0,-99.9,29.88,South,172,-999.0,-999.0,-999,-99.99,,,-99.99,,2013-03-16 12:32:00,
2013-03-16 08:43:00,28.0,-99.9,29.88,South,172,-999.0,-999.0,-999,-99.99,,,-99.99,,2013-03-16 12:43:00,
2013-03-16 08:52:00,31.0,-99.9,29.87,South,172,-999.0,-999.0,-999,-99.99,,,-99.99,,2013-03-16 12:52:00,
2013-03-16 09:23:00,31.0,-99.9,29.87,South,172,-999.0,-999.0,-999,-99.99,,,-99.99,,2013-03-16 13:23:00,
2013-03-16 09:32:00,31.0,-99.9,29.87,South,172,-999.0,-999.0,-999,-99.99,,,-99.99,,2013-03-16 13:32:00,
2013-03-16 09:43:00,31.0,-99.9,29.87,South,172,-999.0,-999.0,-999,-99.99,,,-99.99,,2013-03-16 13:43:00,
2013-03-16 09:52:00,33.0,-99.9,29.87,NW,315,-999.0,-999.0,-999,-99.99,,,-99.99,,2013-03-16 13:52:00,
2013-03-16 10:22:00,33.0,-99.9,29.87,NW,315,-999.0,-999.0,-999,-99.99,,,-99.99,,2013-03-16 14:22:00,
2013-03-16 10:32:00,33.0,-99.9,29.87,NW,315,-999.0,-999.0,-999,-99.99,,,-99.99,,2013-03-16 14:32:00,
2013-03-16 10:42:00,33.0,-99.9,29.87,NW,315,-999.0,-999.0,-999,-99.99,,,-99.99,,2013-03-16 14:42:00,
2013-03-16 10:52:00,34.0,-99.9,29.86,NNW,332,-999.0,-999.0,-999,-99.99,,,-99.99,,2013-03-16 14:52:00,
2013-03-16 11:23:00,34.0,-99.9,29.86,NNW,332,-999.0,-999.0,-999,-99.99,,,-99.99,,2013-03-16 15:23:00,
2013-03-16 11:33:00,34.0,-99.9,29.86,NNW,332,-999.0,-999.0,-999,-99.99,,,-99.99,,2013-03-16 15:33:00,
2013-03-16 11:44:00,34.0,-99.9,29.86,NNW,332,-999.0,-999.0,-999,-99.99,,,-99.99,,2013-03-16 15:44:00,
2013-03-16 12:52:00,31.0,-99.9,29.85,ENE,73,-999.0,-999.0,-999,-99.99,,,-99.99,,2013-03-16 16:52:00,
2013-03-16 13:23:00,31.0,-99.9,29.85,ENE,73,-999.0,-999.0,-999,-99.99,,,-99.99,,2013-03-16 17:23:00,
2013-03-16 13:33:00,31.0,-99.9,29.85,ENE,73,-999.0,-999.0,-999,-99.99,,,-99.99,,2013-03-16 17:33:00,
2013-03-16 13:43:00,31.0,-99.9,29.85,ENE,73,-999.0,-999.0,-999,-99.99,,,-99.99,,2013-03-16 17:43:00,
2013-03-16 13:52:00,30.0,-99.9,29.85,ENE,73,-999.0,-999.0,-999,-99.99,,,-99.99,,2013-03-16 17:52:00,
2013-03-16 14:23:00,30.0,-99.9,29.85,ENE,73,-999.0,-999.0,-999,-99.99,,,-99.99,,2013-03-16 18:23:00,
2013-03-16 14:33:00,30.0,-99.9,29.85,ENE,73,-999.0,-999.0,-999,-99.99,,,-99.99,,2013-03-16 18:33:00,
2013-03-16 14:43:00,30.0,-99.9,29.85,ENE,73,-999.0,-999.0,-999,-99.99,,,-99.99,,2013-03-16 18:43:00,
2013-03-16 14:52:00,31.0,-99.9,29.81,ENE,73,-999.0,-999.0,-999,-99.99,,,-99.99,,2013-03-16 18:52:00,
2013-03-16 15:23:00,31.0,-99.9,29.81,ENE,73,-999.0,-999.0,-999,-99.99,,,-99.99,,2013-03-16 19:23:00,
2013-03-16 15:33:00,31.0,-99.9,29.81,ENE,73,-999.0,-999.0,-999,-99.99,,,-99.99,,2013-03-16 19:33:00,
2013-03-16 15:42:00,31.0,-99.9,29.81,ENE,73,-999.0,-999.0,-999,-99.99,,,-99.99,,2013-03-16 19:42:00,
2013-03-16 15:52:00,31.0,-99.9,29.80,ENE,73,-999.0,-999.0,-999,-99.99,,,-99.99,,2013-03-16 19:52:00,
2013-03-16 16:22:00,31.0,-99.9,29.80,ENE,73,-999.0,-999.0,-999,-99.99,,,-99.99,,2013-03-16 20:22:00,
2013-03-16 16:33:00,31.0,-99.9,29.80,ENE,73,-999.0,-999.0,-999,-99.99,,,-99.99,,2013-03-16 20:33:00,
2013-03-16 16:43:00,31.0,-99.9,29.80,ENE,73,-999.0,-999.0,-999,-99.99,,,-99.99,,2013-03-16 20:43:00,
2013-03-16 16:52:00,31.0,-99.9,29.80,ENE,73,-999.0,-999.0,-999,-99.99,,,-99.99,,2013-03-16 20:52:00,
2013-03-16 17:23:00,31.0,-99.9,29.80,ENE,73,-999.0,-999.0,-999,-99.99,,,-99.99,,2013-03-16 21:23:00,
2013-03-16 17:33:00,31.0,-99.9,29.80,ENE,73,-999.0,-999.0,-999,-99.99,,,-99.99,,2013-03-16 21:33:00,
2013-03-16 17:43:00,31.0,-99.9,29.80,ENE,73,-999.0,-999.0,-999,-99.99,,,-99.99,,2013-03-16 21:43:00,
2013-03-16 17:52:00,31.0,-99.9,29.81,ENE,73,-999.0,-999.0,-999,-99.99,,,-99.99,,2013-03-16 21:52:00,
2013-03-16 18:33:00,31.0,-99.9,29.81,ENE,73,-999.0,-999.0,-999,-99.99,,,-99.99,,2013-03-16 22:33:00,
2013-03-16 18:43:00,31.0,-99.9,29.81,ENE,73,-999.0,-999.0,-999,-99.99,,,-99.99,,2013-03-16 22:43:00,
2013-03-16 18:52:00,31.0,-99.9,29.83,ENE,73,-999.0,-999.0,-999,-99.99,,,-99.99,,2013-03-16 22:52:00,
2013-03-16 19:23:00,31.0,-99.9,29.83,ENE,73,-999.0,-999.0,-999,-99.99,,,-99.99,,2013-03-16 23:23:00,
2013-03-16 19:33:00,31.0,-99.9,29.83,ENE,73,-999.0,-999.0,-999,-99.99,,,-99.99,,2013-03-16 23:33:00,
2013-03-16 19:43:00,31.0,-99.9,29.83,ENE,73,-999.0,-999.0,-999,-99.99,,,-99.99,,2013-03-16 23:43:00,
2013-03-16 20:52:00,31.0,-99.9,29.87,ENE,73,-999.0,-999.0,-999,-99.99,,,-99.99,,2013-03-17 00:52:00,
2013-03-16 21:23:00,31.0,-99.9,29.87,ENE,73,-999.0,-999.0,-999,-99.99,,,-99.99,,2013-03-17 01:23:00,
2013-03-16 21:33:00,31.0,-99.9,29.87,ENE,73,-999.0,-999.0,-999,-99.99,,,-99.99,,2013-03-17 01:33:00,
2013-03-16 21:43:00,31.0,-99.9,29.87,ENE,73,-999.0,-999.0,-999,-99.99,,,-99.99,,2013-03-17 01:43:00,
2013-03-16 21:52:00,31.0,-99.9,29.90,ENE,73,-999.0,-999.0,-999,-99.99,,,-99.99,,2013-03-17 01:52:00,
2013-03-16 22:23:00,31.0,-99.9,29.90,ENE,73,-999.0,-999.0,-999,-99.99,,,-99.99,,2013-03-17 02:23:00,
2013-03-16 22:33:00,31.0,-99.9,29.90,ENE,73,-999.0,-999.0,-999,-99.99,,,-99.99,,2013-03-17 02:33:00,
2013-03-16 22:43:00,31.0,-99.9,29.90,ENE,73,-999.0,-999.0,-999,-99.99,,,-99.99,,2013-03-17 02:43:00,
2013-03-16 22:52:00,30.0,-99.9,29.92,ENE,73,-999.0,-999.0,-999,-99.99,,,-99.99,,2013-03-17 02:52:00,
2013-03-16 23:34:00,30.0,-99.9,29.92,ENE,73,-999.0,-999.0,-999,-99.99,,,-99.99,,2013-03-17 03:34:00,
2013-03-16 23:43:00,30.0,-99.9,29.92,ENE,73,-999.0,-999.0,-999,-99.99,,,-99.99,,2013-03-17 03:43:00,
2013-03-16 23:52:00,30.0,-99.9,29.94,ENE,73,-999.0,-999.0,-999,-99.99,,,-99.99,,2013-03-17 03:52:00,